GFSNGP_prec_cloud_150.txt.gz
Cloud_Cover
100 100 100 100 100 100 100 100 100 100 100 100 100 100 100 100 100 100 100 100 100 100 100 100 100 100 100 100 100 100 100 100 100 100 100 94 96 77 31 6 5 5 33 5
100 100 100 100 98 100 100 100 100 100 100 100 100 100 100 100 100 100 100 100 100 100 100 100 100 100 100 100 100 100 100 100 100 100 99 95 5 5 5 6 53 66 58 91
98 100 100 100 100 100 100 100 100 100 100 100 100 100 100 100 100 100 100 100 100 100 100 100 100 100 100 100 100 100 100 100 100 100 58 58 72 17 43 31 84 100 100 100
100 100 100 96 91 100 100 100 100 100 100 100 100 100 100 100 100 100 100 100 100 100 100 100 100 100 100 100 100 100 100 93 100 88 100 84 85 76 93 100 100 100 91 100
100 100 81 61 100 100 100 100 100 100 100 100 100 100 100 100 100 100 100 100 100 100 100 100 100 100 100 100 100 100 100 73 9 100 99 86 75 90 100 100 74 95 99 83
100 100 100 88 100 100 100 100 100 100 100 100 100 100 100 100 100 100 100 100 100 100 100 100 100 100 100 100 100 100 100 70 34 72 92 82 100 100 91 64 89 90 25 41
100 100 100 100 100 100 100 99 100 100 100 100 100 100 100 100 100 100 100 100 100 100 100 100 100 100 100 100 100 91 84 29 88 92 95 100 100 95 75 68 80 27 5 5
100 100 100 100 100 93 94 92 87 100 100 100 100 100 100 100 100 100 100 100 100 100 100 100 100 100 100 100 95 90 98 92 79 87 100 100 92 80 88 66 25 38 7 5
100 100 100 100 100 77 13 6 5 5 6 37 47 85 100 100 100 100 100 100 100 100 100 100 100 100 100 100 100 99 80 84 95 100 100 100 98 99 100 59 42 58 23 63
90 100 100 99 77 4 1 3 32 9 10 100 100 98 100 100 100 100 100 100 78 92 100 100 100 100 100 100 100 100 100 97 99 100 100 100 100 100 93 87 65 5 15 33
91 33 90 11 27 5 5 5 5 5 43 100 100 100 100 100 100 100 100 100 100 100 100 100 100 100 100 100 100 100 100 100 100 100 100 99 100 96 91 89 8 5 24 72
6 50 100 94 73 9 5 3 1 5 55 100 100 100 99 100 100 100 100 100 95 100 100 100 100 100 95 100 100 100 100 100 100 100 100 100 95 88 80 70 5 5 92 100
5 100 86 5 80 6 3 0 0 50 100 7 100 100 100 100 100 100 100 100 100 100 100 100 100 96 100 100 100 100 100 100 100 100 92 100 100 100 85 100 100 100 100 100
94 28 93 79 6 15 2 0 4 10 100 5 54 99 100 100 100 100 100 100 100 100 100 100 100 100 100 100 100 100 100 100 100 100 100 100 100 100 100 100 99 100 100 100
43 100 37 13 10 88 5 0 0 2 5 26 73 97 100 100 100 100 100 100 100 100 100 100 100 100 99 99 100 100 100 100 100 100 100 100 100 100 100 100 100 100 100 94
88 95 43 10 5 0 0 0 0 20 34 58 96 100 100 100 100 100 100 88 99 100 100 90 100 100 100 100 100 100 100 100 100 100 100 100 100 100 100 100 100 100 100 100
43 17 38 8 2 0 0 0 0 33 100 82 100 100 78 92 100 100 100 100 100 89 84 97 100 100 100 100 100 100 100 100 100 100 100 100 100 100 100 100 100 100 100 100
7 99 5 4 0 0 0 4 100 100 98 100 100 85 98 100 100 100 100 100 100 100 100 100 100 100 100 100 100 100 100 100 100 100 100 100 100 100 100 100 100 100 100 100
100 100 8 0 2 5 13 99 100 100 85 100 100 100 100 98 85 77 75 72 86 94 98 100 100 100 100 100 100 100 100 100 100 100 100 100 100 100 100 100 100 100 100 100
100 100 99 76 20 9 52 65 97 94 100 100 98 95 97 98 74 86 62 58 69 82 81 84 96 100 100 100 100 100 100 100 100 100 100 100 100 100 100 100 100 100 100 100
100 100 100 97 60 100 100 100 100 100 100 94 46 76 66 89 76 81 86 86 44 75 76 80 77 84 68 56 56 80 87 97 100 100 100 100 99 99 86 72 88 100 100 100
100 100 93 62 29 66 85 100 100 100 100 100 92 73 90 100 100 91 74 36 48 66 19 73 33 59 21 18 43 8 6 26 60 54 79 84 70 86 98 98 100 100 100 100
100 100 100 100 86 91 99 100 100 100 100 99 75 66 63 77 75 88 97 34 36 58 6 31 65 89 89 65 65 76 86 87 90 96 99 97 68 66 69 80 93 93 100 100
100 100 100 95 100 100 100 100 100 100 100 100 96 79 30 94 87 66 83 92 79 53 55 68 77 92 82 76 71 73 74 72 76 80 77 76 76 83 100 100 100 100 100 100
99 100 100 100 100 100 100 100 100 100 100 93 97 97 98 98 98 80 73 76 73 83 88 74 91 96 81 76 73 74 76 79 73 73 70 71 90 100 100 100 100 100 100 100
94 100 100 100 100 100 100 100 100 100 100 100 99 99 95 94 88 68 71 86 82 92 76 79 71 72 73 76 78 79 82 82 77 70 72 80 95 100 100 100 100 100 100 100
100 100 100 100 100 100 100 100 100 100 100 100 100 100 95 88 88 90 94 100 99 93 72 66 58 56 68 69 66 76 76 81 79 85 79 100 100 100 100 100 100 100 100 100

GFSNGP_prec_cloud_153.txt.gz
Cloud_Cover
100 100 100 100 100 100 100 100 100 100 100 100 100 100 100 100 100 100 100 100 100 100 100 100 100 100 100 100 100 100 100 100 100 100 100 100 100 100 100 13 5 5 5 5
100 100 100 100 100 100 100 100 100 100 100 100 100 100 100 100 100 100 100 100 100 100 100 100 100 100 100 100 100 100 100 100 100 100 100 100 100 82 86 52 5 30 20 5
83 100 100 98 100 100 98 100 100 100 96 100 100 100 100 100 100 100 100 100 100 100 100 100 100 100 100 100 100 100 100 100 100 100 100 99 63 78 84 72 28 6 24 50
100 100 95 5 77 68 100 100 100 100 81 97 90 100 100 100 100 100 100 100 100 100 100 100 100 100 100 100 100 100 100 100 100 100 97 74 76 90 91 81 76 86 78 85
100 100 13 5 76 100 100 100 100 100 100 100 100 100 100 100 100 100 100 100 100 100 100 100 100 100 100 100 100 100 100 100 100 100 100 99 84 65 89 73 77 100 93 68
100 100 76 5 100 100 100 84 100 100 100 100 100 100 100 100 100 100 100 100 100 100 100 100 100 100 100 100 100 100 100 100 100 100 100 94 68 39 59 59 100 70 68 67
100 100 85 100 100 100 100 100 100 100 100 100 100 100 100 100 100 100 100 100 100 100 100 100 100 100 100 100 100 100 100 100 100 100 88 95 80 68 64 76 80 53 16 37
99 100 100 100 100 100 100 100 100 100 98 95 60 72 100 100 99 95 85 98 99 100 100 100 100 100 100 100 100 100 100 98 100 98 100 100 93 80 88 100 65 39 27 81
100 100 100 100 100 100 100 100 47 5 5 2 6 14 92 100 100 83 94 96 100 100 100 100 100 100 100 100 100 100 100 100 100 100 100 98 95 94 100 76 82 72 49 12
100 100 100 100 69 100 99 85 72 6 8 5 2 46 100 100 100 100 100 100 100 100 100 100 100 100 100 100 100 100 100 100 100 100 100 100 100 100 100 83 75 92 33 84
100 100 100 100 99 5 46 64 86 41 15 0 0 95 90 100 100 100 100 100 100 100 100 100 100 100 100 100 100 100 100 100 100 100 100 100 100 100 100 85 96 100 71 94
97 100 85 94 96 6 5 53 12 5 11 10 0 30 55 100 100 100 100 100 100 100 100 100 100 100 100 100 100 100 100 100 100 100 100 100 100 100 100 100 100 92 58 71
69 75 74 75 5 12 15 5 10 61 6 5 0 0 43 100 100 100 100 100 100 100 100 100 100 100 100 100 100 100 100 100 100 100 100 100 100 100 100 99 100 100 100 100
76 36 6 5 3 5 84 95 68 8 1 0 3 22 34 91 96 100 100 100 100 100 100 100 100 100 100 100 100 100 100 100 100 100 100 100 100 100 100 100 100 100 100 100
100 72 4 5 9 70 73 23 5 0 1 1 4 15 67 76 100 100 100 100 100 100 100 100 100 100 100 100 100 100 100 100 100 100 100 100 100 100 100 100 100 100 100 100
93 20 5 4 81 22 2 0 0 5 2 8 37 45 100 100 100 100 100 100 100 88 99 99 97 91 100 100 100 100 100 100 100 98 100 100 100 100 100 100 100 100 100 100
5 10 98 23 0 0 0 0 0 0 0 27 32 99 92 100 100 79 96 99 76 97 100 100 100 100 100 100 100 100 100 100 100 100 100 100 100 100 100 100 100 100 100 100
30 35 0 0 2 69 2 0 0 0 3 34 98 75 37 66 55 68 85 84 99 100 100 100 100 100 100 100 100 100 100 100 100 100 100 100 100 100 100 100 100 100 100 100
5 50 31 83 100 65 0 0 0 20 99 95 97 100 42 41 52 52 65 81 79 77 85 99 98 100 100 100 100 100 100 100 100 100 100 100 100 100 100 100 100 100 100 100
6 96 94 33 99 94 5 7 6 42 45 93 100 100 100 79 58 63 50 54 46 60 60 69 83 92 84 81 82 99 98 81 83 94 100 100 100 100 100 100 100 100 100 100
54 100 100 94 48 47 35 9 25 58 88 100 100 100 65 91 84 80 88 80 62 62 55 78 70 84 88 84 92 100 100 100 100 100 94 99 99 99 100 100 100 100 100 95
100 100 98 69 46 68 25 34 60 70 88 92 100 72 91 99 100 96 41 28 19 27 21 53 5 5 5 15 85 94 98 98 93 86 88 92 94 100 100 98 100 100 97 98
100 77 49 54 46 70 99 99 100 100 100 100 100 85 66 68 79 96 85 18 19 68 59 74 14 43 6 34 84 78 81 67 48 62 63 64 76 84 88 100 100 100 100 100
85 100 99 84 76 71 82 100 100 100 100 100 95 90 22 85 87 26 38 15 11 66 41 80 77 83 62 58 36 57 69 68 58 49 52 63 75 76 100 100 91 100 100 100
100 100 100 95 100 100 100 100 100 100 100 98 83 80 76 84 76 66 8 36 65 24 72 54 50 81 76 85 80 66 53 15 42 51 61 60 60 100 100 86 87 100 100 100
100 100 100 100 100 100 100 100 100 100 100 90 100 94 86 79 72 36 52 65 85 74 88 96 90 89 93 96 83 71 76 89 78 95 95 87 97 100 87 85 100 100 100 100
100 100 100 100 100 100 100 100 100 100 100 100 100 91 85 94 91 77 67 93 99 98 99 100 100 86 96 83 59 61 77 75 74 74 82 99 98 78 90 97 100 100 100 100

GFSNGP_prec_cloud_156.txt.gz
Cloud_Cover
100 100 100 100 100 100 100 100 100 100 100 100 100 100 100 100 100 100 100 100 100 100 100 100 100 100 100 100 100 100 100 100 100 100 100 100 100 100 100 100 99 18 5 5
100 100 100 100 100 100 100 100 100 100 100 100 100 100 100 100 100 100 100 100 100 100 100 100 100 100 100 100 100 100 100 100 100 100 100 100 100 100 100 100 83 5 5 5
100 100 100 93 100 100 100 100 100 100 90 98 100 100 100 100 100 100 100 100 100 100 100 100 100 100 100 100 100 100 100 100 100 100 100 100 100 100 79 27 29 51 84 79
70 100 94 47 75 19 83 100 100 100 79 20 99 100 100 100 100 100 100 100 100 100 100 100 100 100 100 100 100 100 100 100 100 100 100 100 100 98 88 100 93 98 92 100
100 99 78 14 10 13 63 99 100 100 100 100 100 100 100 100 100 100 100 100 100 100 100 100 100 100 100 100 100 100 100 100 100 100 100 100 72 100 100 100 98 95 99 100
100 100 94 5 60 63 96 17 100 100 100 100 100 100 100 100 100 100 100 100 100 100 100 100 100 100 100 100 100 100 100 100 100 100 100 100 100 100 98 100 100 94 99 100
95 100 71 0 78 32 47 51 13 32 66 100 100 100 100 100 100 100 100 100 100 100 100 100 100 100 100 100 100 100 100 100 100 100 100 100 100 99 100 100 100 100 99 100
88 100 79 3 32 9 58 87 100 100 85 80 93 100 100 100 100 97 52 63 93 100 100 100 100 100 100 100 100 100 100 100 100 100 100 100 99 100 100 100 99 100 100 100
100 44 5 99 100 100 95 97 100 100 100 89 59 100 100 100 100 100 82 43 82 98 100 100 100 100 100 100 100 100 100 100 100 99 100 100 100 100 100 100 99 100 100 100
73 5 20 27 100 100 12 31 74 78 50 9 100 100 100 100 100 97 45 53 66 92 100 100 100 100 100 100 100 100 100 100 100 100 97 97 100 100 100 100 100 100 100 100
2 40 100 100 100 98 17 48 17 5 5 20 5 77 77 100 96 41 5 100 66 90 100 100 100 100 100 100 100 100 100 100 100 100 100 100 100 100 100 100 100 100 100 100
100 100 50 100 57 94 10 23 58 88 99 34 5 8 0 98 89 54 17 60 100 100 100 100 100 100 100 100 100 100 100 100 100 100 100 100 100 100 100 100 100 100 100 100
100 100 97 8 86 100 6 5 67 6 0 0 0 1 0 72 93 68 53 100 100 100 100 100 100 100 100 100 100 100 100 100 100 100 100 100 100 100 100 100 100 100 100 100
100 100 20 5 18 5 6 58 8 4 1 5 2 1 0 5 56 43 25 100 100 87 98 99 100 100 100 100 100 100 100 100 100 100 100 100 100 100 100 100 100 100 100 100
100 65 85 73 32 98 76 5 1 5 0 0 0 0 3 32 69 31 72 100 99 100 100 100 100 100 100 100 100 100 100 100 100 100 100 100 100 100 100 100 100 100 100 100
71 5 91 3 1 98 28 0 5 2 0 0 2 5 5 87 85 100 100 79 97 95 100 100 100 100 100 100 100 100 100 100 100 100 100 100 100 100 100 100 100 100 100 100
100 92 70 5 5 3 3 0 0 0 5 1 0 16 99 61 100 100 89 96 99 100 94 97 98 100 100 100 100 100 100 100 100 100 100 100 100 100 100 100 100 100 100 100
100 100 4 5 5 0 24 91 99 33 0 0 10 87 83 93 96 100 100 100 100 100 100 100 99 98 100 100 100 100 100 100 100 100 100 100 100 100 100 100 100 100 100 100
68 15 5 5 1 15 84 83 53 9 50 97 99 99 81 98 88 100 100 100 100 100 100 100 100 100 100 99 98 100 100 100 100 100 100 100 100 100 100 100 100 100 100 100
6 5 5 0 0 11 30 100 100 100 100 94 100 100 100 99 100 100 100 100 97 86 95 100 100 100 100 89 37 97 100 100 97 96 100 100 99 100 100 100 100 100 100 100
4 16 3 38 45 70 95 100 100 100 100 100 100 100 100 100 96 100 100 100 99 31 84 100 100 100 100 87 41 100 100 100 97 99 100 100 100 100 100 100 100 100 100 100
62 20 17 89 100 100 100 100 97 100 100 100 100 100 100 100 100 100 77 100 81 45 69 95 100 100 100 96 100 100 100 100 100 100 100 100 100 100 100 100 100 100 100 100
100 84 100 100 100 100 100 100 100 89 98 90 100 99 76 76 83 98 99 65 78 48 66 96 89 77 68 77 100 100 100 100 100 100 100 100 100 100 100 100 100 100 100 100
100 100 100 100 100 96 96 100 100 90 99 100 100 100 61 98 95 98 95 32 35 49 80 100 60 76 20 99 100 100 100 100 100 100 100 98 100 100 100 100 100 100 100 100
100 96 98 94 91 99 100 100 94 100 100 100 99 86 70 95 70 82 96 65 69 44 98 100 82 78 70 100 100 92 100 100 100 100 100 100 100 100 100 100 100 100 100 100
100 100 100 100 98 100 100 100 98 100 100 100 100 99 100 99 94 98 100 98 54 77 100 97 96 88 98 100 100 100 100 100 99 99 100 100 100 100 100 100 100 100 100 100
99 100 100 100 100 100 100 100 100 100 100 100 93 92 100 100 100 100 100 100 100 100 100 100 100 98 100 100 100 100 100 100 100 100 100 100 100 100 100 100 99 100 100 100

GFSNGP_prec_cloud_159.txt.gz
Cloud_Cover
100 100 100 100 100 100 100 100 100 100 100 100 100 100 100 100 100 100 100 100 100 100 100 100 100 100 100 100 100 100 100 100 100 100 100 100 100 100 93 100 86 93 100 100
100 100 100 100 100 100 100 100 100 100 100 100 100 100 100 100 100 100 100 100 100 100 100 100 100 100 100 100 100 96 100 100 100 100 100 100 100 100 100 100 100 100 100 100
100 100 100 100 100 100 100 100 100 100 95 100 100 100 77 99 100 100 100 100 100 100 100 100 100 100 100 100 100 100 100 100 100 100 100 100 100 100 100 100 100 100 100 100
100 100 91 5 17 96 88 47 100 100 92 90 100 94 68 96 26 37 37 97 78 7 63 100 100 100 100 100 100 100 100 100 100 100 100 100 100 100 100 100 100 100 100 100
100 100 75 96 4 86 14 60 14 93 64 59 31 75 91 16 5 5 7 100 98 98 100 100 100 100 100 100 100 100 100 100 100 100 100 100 100 100 100 100 97 94 100 100
100 100 99 4 17 43 30 47 5 64 88 80 11 28 95 69 100 100 80 97 100 100 88 100 100 100 100 100 100 100 100 100 100 100 100 100 100 100 100 94 100 100 100 99
86 96 76 16 100 54 5 32 5 5 3 0 4 5 24 94 91 67 64 29 9 96 100 100 99 99 100 100 100 100 100 100 100 100 100 100 100 100 100 100 100 100 99 100
64 100 79 33 26 33 5 6 6 0 1 82 47 98 100 100 100 5 5 5 14 68 100 100 100 100 100 100 100 100 100 100 100 100 100 100 100 100 100 100 99 100 100 100
58 40 67 85 5 5 23 5 0 2 5 90 100 100 100 100 100 64 0 0 0 24 100 100 100 100 100 100 100 100 100 100 100 100 100 100 100 100 100 98 96 100 100 100
100 91 100 100 100 100 99 4 0 1 100 100 100 100 100 100 100 55 0 0 3 32 100 98 100 100 100 100 100 100 100 100 100 100 100 100 100 96 97 100 100 100 100 100
100 100 100 100 94 55 4 2 5 6 15 5 42 6 32 71 0 0 3 2 4 37 87 99 100 100 100 100 100 100 100 100 100 100 100 100 100 100 100 97 100 100 100 100
100 100 100 51 48 6 4 4 5 5 46 100 98 7 86 97 8 0 5 23 4 23 75 100 100 100 100 100 100 100 100 100 100 100 100 100 100 100 100 98 83 100 100 100
100 100 98 98 91 40 84 99 95 31 17 86 9 5 5 5 22 1 1 12 5 32 85 98 100 100 100 100 100 100 100 100 100 100 100 100 100 100 100 100 100 100 100 100
100 100 88 76 100 100 82 66 100 31 63 3 74 14 1 5 20 5 1 34 48 40 94 100 100 100 100 100 100 100 100 96 100 100 100 100 100 100 100 100 100 100 100 100
100 100 100 100 100 87 48 100 5 13 7 4 1 0 5 97 96 22 24 89 86 61 100 100 93 100 100 100 100 100 100 100 100 100 100 100 100 100 100 100 100 100 100 100
100 100 100 100 100 100 15 21 2 14 7 5 2 4 5 5 82 62 100 56 55 61 100 100 89 99 100 100 100 100 100 100 100 100 100 100 100 100 100 100 100 100 100 100
100 100 100 100 100 12 5 8 6 5 5 0 4 5 5 5 23 94 71 94 99 88 100 99 99 100 100 100 100 100 100 100 100 100 100 100 100 100 100 100 100 100 100 100
100 100 100 100 97 100 88 7 5 4 1 5 20 61 96 60 38 82 88 100 100 100 100 100 84 92 94 100 100 100 100 99 100 100 100 100 100 100 100 100 100 100 100 100
100 99 80 60 21 100 77 12 4 10 58 96 100 100 100 100 100 100 100 100 100 100 100 100 93 95 100 100 98 100 100 95 100 100 99 98 100 100 100 100 100 100 100 100
96 28 100 100 100 26 10 87 100 100 100 100 100 100 100 100 99 100 100 100 100 95 100 100 100 100 100 100 90 100 100 100 100 100 99 100 100 100 100 100 100 100 100 100
8 65 88 86 100 100 100 100 100 100 100 100 100 100 100 100 100 100 100 100 99 100 96 100 100 100 100 100 78 92 90 96 99 100 90 99 100 100 100 100 100 100 100 100
100 97 100 100 100 100 100 100 100 100 100 100 100 100 100 100 100 100 65 88 100 89 100 100 100 100 100 99 94 98 99 97 100 100 98 100 100 100 100 100 100 100 100 100
100 100 100 100 100 100 100 100 100 100 100 100 99 97 98 100 100 100 100 87 95 70 100 100 100 100 100 98 98 100 100 100 100 100 100 100 100 100 100 100 100 100 100 100
100 100 100 100 100 100 100 100 100 100 100 100 100 79 98 100 100 99 99 100 100 61 98 100 100 100 100 100 100 100 100 100 100 100 100 100 100 100 100 100 100 100 97 100
100 100 100 100 100 93 96 79 90 100 100 95 100 100 100 91 94 100 100 100 39 29 98 100 98 85 97 100 100 100 100 100 100 100 100 100 100 100 100 100 100 100 100 100
100 100 100 100 100 100 100 89 95 99 100 100 100 96 99 99 100 100 100 100 97 91 100 100 100 100 84 100 100 100 100 100 100 99 100 98 100 100 100 100 100 100 100 100
100 100 100 100 99 100 100 99 100 100 100 100 100 100 100 100 100 100 100 100 100 100 100 100 100 100 100 100 100 100 100 100 100 100 100 100 100 100 100 100 100 100 100 100

GFSNGP_prec_cloud_162.txt.gz
Cloud_Cover
62 100 100 100 100 100 100 100 100 100 100 100 100 100 100 100 100 100 100 100 100 100 100 100 100 100 100 100 100 100 100 100 100 100 100 100 100 100 100 100 100 100 100 100
82 100 100 100 100 100 100 100 100 100 100 100 100 100 100 100 100 100 100 100 100 100 100 100 100 100 100 100 100 100 100 100 100 100 100 100 100 100 100 100 100 100 99 100
100 100 100 100 100 100 100 100 100 100 100 100 100 100 100 100 100 100 100 100 100 100 100 98 92 96 100 100 100 100 100 100 100 100 100 100 100 100 100 100 100 100 100 100
54 100 100 100 100 47 50 99 100 100 100 100 72 51 91 71 11 16 9 8 5 5 5 12 90 15 5 67 15 87 100 100 100 100 100 100 100 100 100 100 100 100 100 100
100 84 13 26 0 6 78 52 53 8 17 47 43 58 33 75 5 5 5 74 23 2 5 3 7 38 7 73 100 100 100 100 100 100 100 100 100 100 100 100 100 100 100 100
100 100 73 0 5 97 100 100 5 26 46 5 5 47 90 8 4 0 0 5 100 100 16 43 91 100 100 100 90 100 100 100 100 100 100 100 100 100 100 100 100 100 100 100
65 96 20 0 5 99 100 9 22 7 9 5 7 5 4 0 15 2 33 32 7 96 100 100 96 96 100 100 100 100 100 100 100 100 100 100 100 100 100 100 100 100 99 99
37 96 73 3 94 100 62 100 87 4 5 5 10 46 100 95 68 70 63 84 30 7 75 100 100 100 100 100 100 100 100 100 100 100 100 100 100 100 100 100 100 88 98 100
100 11 13 5 40 47 96 14 97 10 1 1 14 100 94 100 92 5 1 0 0 0 24 81 95 100 100 100 100 100 100 100 100 100 100 100 100 100 100 100 100 100 100 100
100 81 100 100 100 100 86 97 100 8 5 9 100 100 84 51 98 5 0 0 2 3 0 86 100 100 100 100 100 100 100 100 100 100 100 100 100 100 100 100 100 100 98 90
100 100 100 100 100 100 100 100 14 94 46 5 4 5 5 15 54 5 12 28 3 4 1 58 100 99 100 100 100 100 100 100 100 100 100 100 100 100 100 100 100 100 100 85
100 100 100 100 100 100 99 23 99 99 60 4 84 97 74 100 100 98 8 5 5 4 5 31 100 100 100 100 100 100 100 100 100 100 100 100 100 100 100 100 100 100 90 92
100 100 100 100 100 100 100 100 100 26 5 50 21 38 100 84 6 18 100 79 8 2 5 47 98 100 100 100 100 100 100 100 100 97 100 100 100 100 100 100 85 93 100 100
100 100 100 100 100 100 100 100 7 36 37 12 34 91 57 99 42 33 17 5 80 98 87 92 96 61 100 100 100 100 100 100 90 95 100 100 100 100 100 100 99 100 100 100
100 100 100 100 100 100 100 89 65 36 100 10 100 85 15 0 3 66 68 80 9 100 100 100 100 96 96 100 100 100 100 100 97 99 98 98 95 67 100 100 100 100 100 100
100 100 100 100 100 100 100 100 88 100 100 89 3 5 4 0 3 93 75 56 5 56 41 90 100 100 100 100 100 100 99 100 100 100 100 92 85 100 100 100 100 100 100 100
100 100 100 100 100 100 100 100 100 100 100 92 5 5 5 3 5 5 5 5 74 53 82 98 100 100 100 100 85 91 100 100 100 100 98 100 100 100 100 100 100 100 100 100
39 100 100 100 100 100 100 100 100 100 100 100 98 46 47 7 10 14 65 100 100 100 100 100 100 100 100 100 98 97 92 99 100 100 100 94 84 88 68 49 77 90 81 72
85 63 54 100 100 100 100 100 100 100 74 100 98 96 93 100 100 93 100 100 94 100 100 100 97 78 90 72 74 74 78 86 98 100 79 90 98 63 52 38 77 62 90 67
90 100 100 100 100 100 100 100 100 89 94 100 99 100 100 100 100 100 90 100 80 89 100 100 100 100 99 87 96 98 94 100 100 100 100 98 90 89 62 62 85 67 91 80
100 100 100 100 100 100 100 100 100 100 100 100 100 100 100 100 100 98 100 100 97 100 100 100 100 100 100 100 98 100 92 94 100 100 100 100 100 100 98 84 95 100 96 95
100 100 100 100 100 100 100 100 100 100 99 100 100 100 100 100 100 100 100 87 89 100 78 100 100 100 100 100 99 94 95 99 93 100 100 98 100 100 100 100 99 96 98 99
100 100 100 100 100 100 100 100 100 100 100 100 100 100 100 100 100 100 100 88 98 100 94 100 100 100 100 100 83 90 95 90 87 100 100 100 82 98 98 99 94 93 100 100
100 100 100 100 100 100 100 100 100 100 100 100 100 100 84 71 100 100 100 98 83 90 100 100 100 100 100 100 96 100 100 95 100 98 100 94 80 87 93 84 81 100 100 100
100 99 99 96 96 100 100 100 100 100 100 100 100 98 80 69 59 93 100 99 96 82 100 100 100 100 100 100 100 100 100 99 100 100 99 100 99 100 100 100 99 100 99 98
100 100 100 100 100 100 100 99 98 100 100 100 100 98 94 85 88 99 100 100 100 89 100 100 100 100 100 100 100 100 100 100 100 100 100 100 100 100 100 99 99 100 81 87
100 100 100 100 100 100 100 100 98 92 93 100 100 100 100 100 73 100 100 100 100 100 100 100 100 100 100 100 100 100 100 100 100 100 100 100 100 91 100 100 100 81 83 92

GFSNGP_prec_cloud_165.txt.gz
Cloud_Cover
100 100 100 100 100 100 100 100 100 100 100 100 100 100 100 100 100 100 100 100 100 100 100 100 100 100 100 100 100 100 100 100 100 100 100 100 100 100 100 100 100 100 100 100
8 100 100 100 100 100 100 100 100 100 100 100 100 100 100 100 100 100 100 100 100 100 100 100 100 100 100 100 100 100 100 100 100 100 100 100 100 100 100 100 100 100 100 100
3 29 18 84 4 77 62 62 53 68 76 90 93 100 100 100 100 100 100 100 100 100 100 96 94 96 100 100 100 100 100 100 86 100 100 100 100 100 100 100 100 100 100 100
51 46 99 1 4 5 5 7 18 6 6 5 12 57 43 39 5 8 40 28 44 51 98 63 21 5 6 22 76 100 100 100 100 100 100 100 100 100 100 100 100 100 100 100
100 100 50 15 4 53 98 54 75 23 17 50 59 13 5 5 5 7 31 84 8 28 25 12 0 0 0 0 0 52 100 94 100 100 100 100 100 100 100 100 100 100 100 100
100 100 71 5 14 89 100 100 4 11 32 66 10 4 4 3 5 5 7 10 99 82 74 7 50 87 62 93 90 92 98 79 100 100 100 100 100 100 100 100 100 100 100 100
96 100 70 0 6 34 100 12 100 100 100 8 3 2 4 5 5 5 5 1 96 100 100 100 53 98 100 100 100 100 100 100 100 100 100 100 100 100 100 100 100 100 100 100
80 100 79 3 23 67 38 98 12 16 46 9 3 90 85 100 4 2 0 0 29 27 99 100 93 99 100 100 100 100 100 100 100 100 100 100 100 100 100 100 100 100 100 100
100 100 86 3 42 23 25 15 7 8 8 26 56 100 100 48 93 2 9 1 0 0 78 86 39 100 100 100 100 100 100 100 100 100 100 100 100 100 100 100 100 100 100 100
100 100 100 84 93 88 100 100 5 60 96 96 82 99 70 100 97 63 1 3 0 17 78 96 62 70 100 100 100 100 100 100 100 100 100 100 100 100 100 100 100 100 100 100
100 100 100 100 100 100 81 73 100 100 99 100 100 54 100 99 5 5 1 3 76 100 52 21 38 94 98 100 100 100 100 100 100 100 100 100 100 100 100 100 100 100 100 100
100 100 100 100 100 100 100 100 100 100 100 100 100 100 100 44 5 4 4 2 78 100 25 100 100 98 100 100 100 100 100 100 100 100 100 100 100 100 100 100 100 99 95 100
100 100 100 100 100 100 100 100 100 100 100 100 100 83 99 100 5 0 5 5 82 29 2 4 20 41 98 92 100 100 100 100 100 100 100 100 100 100 91 100 100 96 84 100
100 100 100 100 100 100 100 100 100 100 100 100 66 100 100 60 4 3 31 0 2 4 3 5 6 47 7 97 100 100 100 100 100 100 100 100 99 87 78 83 85 100 100 100
100 100 100 100 100 100 100 100 100 100 100 94 100 100 78 5 11 5 0 0 5 31 20 5 22 81 92 92 100 100 100 100 96 100 100 100 100 98 100 90 82 83 99 98
100 100 100 100 100 100 100 100 100 100 100 100 100 96 5 5 22 0 2 0 5 5 5 5 5 21 99 95 99 100 97 97 95 86 94 100 99 100 100 98 91 85 100 98
100 100 100 99 100 100 100 100 100 100 100 100 100 13 39 18 4 83 5 4 5 5 5 5 54 96 100 100 100 98 97 98 84 90 97 88 84 92 94 94 100 76 68 74
100 100 100 100 100 100 100 100 100 100 100 100 61 94 86 8 100 100 100 100 47 38 33 52 100 100 100 100 100 97 89 87 92 83 89 92 92 94 43 67 83 66 43 5
100 100 100 100 100 100 100 76 100 100 100 60 84 99 100 100 100 97 100 100 100 100 100 97 85 100 100 100 88 73 76 79 90 91 83 77 82 74 5 5 5 5 5 5
100 100 100 100 100 100 100 100 100 100 100 100 100 100 100 100 100 100 100 96 41 46 100 99 100 100 100 98 69 62 72 78 79 78 65 68 16 6 60 34 49 84 83 36
100 100 100 100 100 100 100 100 100 100 100 100 100 100 100 100 100 100 98 98 80 94 100 100 100 100 100 93 86 59 25 28 74 61 32 18 56 84 83 72 24 99 66 5
100 100 100 100 100 100 100 100 100 100 100 100 100 100 100 100 100 100 28 32 100 100 100 100 100 100 100 100 97 65 42 29 34 72 37 5 5 31 91 89 69 68 58 59
100 100 100 100 100 100 100 100 100 100 100 100 100 100 100 100 100 94 92 100 100 100 100 100 100 100 100 100 100 88 58 5 5 5 5 5 5 5 64 100 100 95 100 97
100 100 100 100 100 100 100 100 100 100 100 100 100 100 100 100 100 100 100 100 93 100 100 100 100 100 100 100 100 98 67 12 24 6 30 31 48 50 66 69 89 98 83 66
97 100 100 100 98 98 100 100 100 100 100 100 100 100 100 88 80 67 100 97 100 100 100 100 100 100 100 100 100 93 100 98 78 34 24 28 37 78 81 74 86 100 100 100
100 100 100 100 100 100 97 95 97 85 99 97 100 100 97 100 100 90 98 100 100 100 100 100 100 100 100 100 100 100 100 100 100 96 82 68 86 90 94 92 99 100 100 100
100 100 100 100 100 100 100 100 100 100 100 98 96 100 100 100 100 99 100 100 100 100 100 100 100 100 100 100 100 100 100 100 100 100 100 99 100 98 86 86 83 100 100 100